Hourly Weather Kitzbuhel

Today, 6 July, Monday

Time Temperature Precipitation Wind Pressure Humidity
00:00 +16°C° 0 mm 1 mps 678 mmHg 93%
01:00 +15°C° 0 mm 1 mps 678 mmHg 95%
02:00 +15°C° 0.1 mm 0 mps 678 mmHg 95%
03:00 +15°C° 0.1 mm 0 mps 678 mmHg 95%
04:00 +15°C° 0.1 mm 0 mps 677 mmHg 95%
05:00 +16°C° 0.1 mm 0 mps 677 mmHg 93%
06:00 +17°C° 0.1 mm 0 mps 677 mmHg 92%
07:00 +19°C° 0 mm 0 mps 677 mmHg 88%
08:00 +22°C° 0.1 mm 1 mps 677 mmHg 80%
09:00 +23°C° 0.1 mm 1 mps 678 mmHg 73%
10:00 +24°C° 0.1 mm 2 mps 678 mmHg 65%
11:00 +21°C° 0.5 mm 2 mps 677 mmHg 74%
12:00 +19°C° 0.5 mm 2 mps 677 mmHg 83%
13:00 +17°C° 0 mm 2 mps 676 mmHg 93%
14:00 +16°C° 1 mm 2 mps 676 mmHg 95%
15:00 +15°C° 1 mm 2 mps 676 mmHg 97%
16:00 +14°C° 1 mm 2 mps 675 mmHg 98%
17:00 +14°C° 1.9 mm 2 mps 676 mmHg 98%
18:00 +13°C° 1.9 mm 2 mps 676 mmHg 97%
19:00 +13°C° 1.9 mm 2 mps 677 mmHg 97%
20:00 +12°C° 0.5 mm 2 mps 677 mmHg 97%
21:00 +12°C° 0.5 mm 2 mps 677 mmHg 97%
22:00 +10°C° 0.5 mm 2 mps 678 mmHg 96%
23:00 +11°C° 0.2 mm 1 mps 678 mmHg 96%

Tomorrow, 7 July, Tuesday

Time Temperature Precipitation Wind Pressure Humidity
00:00 +10°C° 0.2 mm 1 mps 678 mmHg 96%
01:00 +9°C° 0.2 mm 1 mps 678 mmHg 95%
02:00 +8°C° 0.1 mm 1 mps 678 mmHg 95%
03:00 +8°C° 0.1 mm 1 mps 678 mmHg 95%
04:00 +7°C° 0.1 mm 1 mps 678 mmHg 95%
05:00 +8°C° 0 mm 0 mps 679 mmHg 93%
06:00 +9°C° 0 mm 0 mps 679 mmHg 91%
07:00 +10°C° 0 mm 0 mps 680 mmHg 90%
08:00 +13°C° 0 mm 1 mps 680 mmHg 76%
09:00 +15°C° 0 mm 1 mps 680 mmHg 63%
10:00 +19°C° 0 mm 1 mps 680 mmHg 49%
11:00 +19°C° 0 mm 1 mps 680 mmHg 46%
12:00 +19°C° 0 mm 2 mps 680 mmHg 42%
13:00 +20°C° 0 mm 2 mps 680 mmHg 39%
14:00 +20°C° 0 mm 2 mps 679 mmHg 40%
15:00 +20°C° 0 mm 2 mps 679 mmHg 42%
16:00 +20°C° 0 mm 2 mps 679 mmHg 43%
17:00 +19°C° 0 mm 2 mps 679 mmHg 53%
18:00 +17°C° 0 mm 2 mps 679 mmHg 64%
19:00 +16°C° 0 mm 1 mps 678 mmHg 74%
20:00 +14°C° 0 mm 1 mps 678 mmHg 80%
21:00 +12°C° 0 mm 1 mps 678 mmHg 87%
22:00 +9°C° 0 mm 0 mps 678 mmHg 93%
23:00 +10°C° 0 mm 1 mps 678 mmHg 93%

Day after tomorrow, 8 July, Wednesday

Time Temperature Precipitation Wind Pressure Humidity
00:00 +10°C° 0 mm 1 mps 678 mmHg 93%
01:00 +10°C° 0 mm 1 mps 678 mmHg 94%
02:00 +9°C° 0 mm 1 mps 678 mmHg 93%
03:00 +9°C° 0 mm 1 mps 678 mmHg 93%
04:00 +9°C° 0 mm 1 mps 678 mmHg 92%
05:00 +11°C° 0 mm 1 mps 678 mmHg 85%
06:00 +14°C° 0 mm 1 mps 678 mmHg 78%
07:00 +15°C° 0 mm 0 mps 679 mmHg 71%
08:00 +19°C° 0 mm 1 mps 679 mmHg 63%
09:00 +21°C° 0 mm 1 mps 680 mmHg 55%
10:00 +23°C° 0 mm 1 mps 680 mmHg 47%
11:00 +24°C° 0 mm 1 mps 680 mmHg 45%
12:00 +25°C° 0 mm 2 mps 680 mmHg 43%
13:00 +25°C° 0 mm 2 mps 680 mmHg 41%
14:00 +25°C° 0 mm 2 mps 680 mmHg 43%
15:00 +25°C° 0 mm 2 mps 679 mmHg 45%
16:00 +24°C° 0 mm 3 mps 679 mmHg 48%
17:00 +23°C° 0 mm 2 mps 679 mmHg 58%
18:00 +20°C° 0 mm 2 mps 679 mmHg 68%
19:00 +19°C° 0 mm 1 mps 679 mmHg 78%
20:00 +18°C° 0 mm 1 mps 679 mmHg 83%
21:00 +15°C° 0 mm 1 mps 679 mmHg 88%
22:00 +12°C° 0 mm 0 mps 679 mmHg 93%
23:00 +12°C° 0 mm 0 mps 679 mmHg 94%

9 July, Thursday

Time Temperature Precipitation Wind Pressure Humidity
00:00 +13°C° 0 mm 1 mps 680 mmHg 94%
01:00 +13°C° 0 mm 1 mps 680 mmHg 95%
02:00 +13°C° 0 mm 1 mps 679 mmHg 94%
03:00 +13°C° 0 mm 1 mps 679 mmHg 94%
04:00 +13°C° 0 mm 1 mps 679 mmHg 93%
05:00 +13°C° 0 mm 0 mps 680 mmHg 88%
06:00 +15°C° 0 mm 0 mps 680 mmHg 82%
07:00 +17°C° 0 mm 0 mps 681 mmHg 77%
08:00 +19°C° 0 mm 0 mps 681 mmHg 68%
09:00 +23°C° 0 mm 1 mps 681 mmHg 60%
10:00 +25°C° 0 mm 1 mps 682 mmHg 52%
11:00 +25°C° 0.1 mm 1 mps 682 mmHg 50%
12:00 +26°C° 0.1 mm 1 mps 681 mmHg 48%
13:00 +27°C° 0.1 mm 1 mps 681 mmHg 46%
14:00 +26°C° 0.2 mm 2 mps 681 mmHg 49%
15:00 +26°C° 0.2 mm 2 mps 681 mmHg 51%
16:00 +26°C° 0.2 mm 2 mps 680 mmHg 54%
17:00 +24°C° 0.1 mm 1 mps 680 mmHg 64%
18:00 +23°C° 0.1 mm 1 mps 680 mmHg 74%
19:00 +21°C° 0.1 mm 1 mps 679 mmHg 84%
20:00 +20°C° 0.4 mm 1 mps 679 mmHg 87%
21:00 +19°C° 0.4 mm 1 mps 679 mmHg 89%
22:00 +16°C° 0.4 mm 1 mps 679 mmHg 92%
23:00 +16°C° 0 mm 1 mps 679 mmHg 92%

10 July, Friday

Time Temperature Precipitation Wind Pressure Humidity
00:00 +15°C° 0 mm 2 mps 678 mmHg 91%
01:00 +15°C° 0 mm 2 mps 678 mmHg 91%
02:00 +15°C° 0 mm 2 mps 678 mmHg 91%
03:00 +15°C° 0 mm 2 mps 678 mmHg 90%
04:00 +15°C° 0 mm 2 mps 677 mmHg 89%
05:00 +16°C° 0 mm 1 mps 677 mmHg 86%
06:00 +19°C° 0 mm 1 mps 678 mmHg 82%
07:00 +21°C° 0 mm 1 mps 678 mmHg 79%
08:00 +23°C° 0.2 mm 1 mps 678 mmHg 70%
09:00 +25°C° 0.2 mm 1 mps 678 mmHg 62%
10:00 +25°C° 0.2 mm 0 mps 678 mmHg 54%
11:00 +26°C° 0.4 mm 0 mps 678 mmHg 50%
12:00 +27°C° 0.4 mm 0 mps 678 mmHg 47%
13:00 +28°C° 0.4 mm 0 mps 678 mmHg 44%
14:00 +27°C° 0.9 mm 1 mps 678 mmHg 57%
15:00 +25°C° 0.9 mm 1 mps 677 mmHg 70%
16:00 +21°C° 0.9 mm 2 mps 677 mmHg 83%
17:00 +20°C° 5 mm 2 mps 677 mmHg 88%
18:00 +18°C° 5 mm 2 mps 677 mmHg 93%
19:00 +17°C° 5 mm 2 mps 677 mmHg 98%
20:00 +16°C° 3.3 mm 2 mps 677 mmHg 98%
21:00 +15°C° 3.3 mm 2 mps 678 mmHg 98%
22:00 +15°C° 3.3 mm 1 mps 678 mmHg 99%
23:00 +14°C° 1.4 mm 1 mps 678 mmHg 98%

11 July, Saturday

Time Temperature Precipitation Wind Pressure Humidity
00:00 +14°C° 1.4 mm 1 mps 678 mmHg 98%
01:00 +13°C° 1.4 mm 1 mps 678 mmHg 98%
02:00 +13°C° 0.6 mm 1 mps 678 mmHg 98%
03:00 +13°C° 0.6 mm 1 mps 678 mmHg 98%
04:00 +12°C° 0.6 mm 1 mps 678 mmHg 99%
05:00 +12°C° 0.7 mm 1 mps 678 mmHg 99%
06:00 +12°C° 0.7 mm 1 mps 679 mmHg 98%
07:00 +11°C° 0.7 mm 1 mps 679 mmHg 98%
08:00 +12°C° 0.4 mm 1 mps 679 mmHg 95%
09:00 +13°C° 0.4 mm 1 mps 680 mmHg 91%
10:00 +14°C° 0.4 mm 1 mps 680 mmHg 87%
11:00 +15°C° 0 mm 1 mps 680 mmHg 81%
12:00 +16°C° 0 mm 1 mps 680 mmHg 74%
13:00 +18°C° 0 mm 1 mps 681 mmHg 68%
14:00 +18°C° 0 mm 1 mps 680 mmHg 70%
15:00 +16°C° 0 mm 2 mps 680 mmHg 72%
16:00 +16°C° 0 mm 2 mps 680 mmHg 74%
17:00 +15°C° 0 mm 1 mps 680 mmHg 77%
18:00 +15°C° 0 mm 1 mps 680 mmHg 81%
19:00 +14°C° 0 mm 1 mps 681 mmHg 84%
20:00 +13°C° 0 mm 1 mps 681 mmHg 87%
21:00 +12°C° 0 mm 1 mps 681 mmHg 90%
22:00 +10°C° 0 mm 0 mps 681 mmHg 93%
23:00 +9°C° 0 mm 0 mps 681 mmHg 93%
Show more